Погода в Сан-Пабло

Филиппины     14°04′20″N   121°19′45″E
темп.,
°C
ветер,
м/с
пор.,
м/с
влажн.,
%
обл.,
%
осадки,
мм/ч
давл.,
гПа
погр.,
м
15 апреля, чт
чт1523:00+23ссв11955 0.1 101235
02:00+22ссв129810 0.3 101046
05:00+22св119868 0.0 101028
08:00+28св236923 0.0 1012810
11:00+30всв236050 1.9 10111265
14:00+30вюв236181 5.1 10081153
17:00+28всв247299 2.3 1008306
20:00+24ссв1189100 2.4 101119
16 апреля, пт
пт1623:00+23ссв129585 0.0 101254
02:00+22ссв119743 0.0 101020
05:00+21св1197100 0.0 101131
08:00+26св2375100 0.0 1012561
11:00+34св2336100 0.0 10111798
14:00+34св4333100 0.0 10082232
17:00+29св2452100 0.0 1009626
20:00+23ссв1286100 0.0 101237
17 апреля, сб
сб1723:00+22ссв129795 0.0 101346
02:00+22св1198100 0.0 101115
05:00+22ссв1298100 0.0 101042
08:00+27ссв2467100 0.0 1013880
11:00+33св3441100 0.0 10111821
14:00+34ссв533387 0.0 10082187
17:00+30св35447 0.0 1008992
20:00+23с228494 0.0 101257
18 апреля, вс
вс1823:00+23св238588 0.0 1012189
02:00+24св148360 0.1 1010259
05:00+22св1394100 0.0 101064
08:00+27св3666100 0.0 10111008
11:00+31св4643100 0.0 10091726
14:00+32св4639100 0.0 10061904
17:00+28св1254100 0.0 1005214
20:00+24ссз1281100 0.0 100953
19 апреля, пн
пн1923:00+23с1184100 0.1 100916
02:00+24с1180100 0.1 100738
05:00+22ссз1188100 0.0 100720
08:00+27св1267100 0.0 1008568
11:00+33с2442100 0.0 10061933
14:00+34ююв1337100 0.0 10032296
17:00+27ю2562100 0.2 1004431
20:00+24з1176100 0.2 100725